Palmer, AK

2:59 PM AKDT on August 25, 2016 (GMT -0800)
Palmer Municipal

Weather History for PAAQ - January, 2013

Change the Weather History Date:

Sunday, January 20, 2013

  Actual Average Record
Temperature  
Mean Temperature 22 °F -  
Max Temperature 27 °F 23 °F 52 °F (1961)
Min Temperature 16 °F 8 °F -30 °F (1989)
Degree Days  
Heating Degree Days 42    
Moisture  
Dew Point 15 °F    
Average Humidity 70    
Maximum Humidity 92    
Minimum Humidity 55    
Precipitation  
Precipitation 0.00 in - - ()
Sea Level Pressure  
Sea Level Pressure 29.90 in    
Wind  
Wind Speed 9 mph (NNE)    
Max Wind Speed 20 mph    
Max Gust Speed 25 mph    
Visibility 10 miles    
Events      
Averages and records for this station are not official NWS values.
T = Trace of Precipitation, MM = Missing Value Source: NWS Daily Summary

Daily Weather History Graph

Daily Weather History Graph

Search for Another Location

Airport or City:

Trip Planner

Search our weather history database for the weather conditions in past years. The results will help you decide how hot, cold, wet, or windy it might be!

Date:

Astronomy

Jan. 20, 2013 Rise Set
Actual Time 9:46 AM AKST 4:29 PM AKST
Civil Twilight 8:51 AM AKST 5:24 PM AKST
Nautical Twilight 7:55 AM AKST 6:20 PM AKST
Astronomical Twilight 7:03 AM AKST 7:12 PM AKST
Moon 11:40 AM AKST (1/20) 4:20 AM AKST (1/20)
Length of Visible Light 8h 33m
Length of Day
6h 43m
Waxing Gibbous, 67% of the Moon is Illuminated
Jan 20
Waxing Gibbous
Jan 26
Full
Feb 3
Last Quarter
Feb 9
New
Feb 17
First Quarter

Hourly Weather History & Observations

Time (AKST) Temp. Windchill Dew Point Humidity Pressure Visibility Wind Dir Wind Speed Gust Speed Precip Events Conditions
12:53 AM 21.0 °F 11.4 °F 9.0 °F 60% 29.96 in 10.0 mi NNE 8.1 mph - N/A   Clear
1:53 AM 21.0 °F 13.4 °F 12.9 °F 71% 29.98 in 10.0 mi ENE 5.8 mph - N/A   Mostly Cloudy
2:53 AM 23.0 °F 15.8 °F 9.0 °F 55% 29.96 in 10.0 mi NNE 5.8 mph - N/A   Overcast
3:53 AM 23.0 °F 11.1 °F 10.9 °F 60% 29.95 in 10.0 mi North 12.7 mph - N/A   Overcast
4:53 AM 23.0 °F 8.3 °F 10.0 °F 58% 29.93 in 10.0 mi North 19.6 mph 25.3 mph N/A   Overcast
5:53 AM 24.1 °F 9.8 °F 10.0 °F 55% 29.91 in 10.0 mi North 19.6 mph - N/A   Overcast
6:53 AM 24.1 °F 9.8 °F 10.9 °F 57% 29.91 in 10.0 mi North 19.6 mph - N/A   Overcast
7:53 AM 24.1 °F 10.1 °F 10.9 °F 57% 29.90 in 8.0 mi North 18.4 mph - N/A   Overcast
8:53 AM 24.1 °F 10.6 °F 12.0 °F 60% 29.90 in 10.0 mi North 17.3 mph - N/A   Overcast
9:53 AM 26.1 °F 14.5 °F 14.0 °F 60% 29.91 in 10.0 mi North 13.8 mph - N/A   Overcast
10:53 AM 26.1 °F 14.0 °F 12.9 °F 58% 29.88 in 10.0 mi North 15.0 mph - N/A   Overcast
11:44 AM 26.6 °F 15.2 °F 12.2 °F 55% 29.87 in 10.0 mi North 13.8 mph - N/A   Overcast
11:53 AM 27.0 °F 15.6 °F 14.0 °F 58% 29.89 in 10.0 mi North 13.8 mph - N/A   Overcast
12:53 PM 27.0 °F 23.0 °F 17.1 °F 66% 29.88 in 10.0 mi ENE 3.5 mph - N/A   Overcast
1:53 PM 25.0 °F 20.7 °F 18.0 °F 75% 29.88 in 10.0 mi East 3.5 mph - N/A   Overcast
2:53 PM 26.1 °F - 19.9 °F 78% 29.88 in 10.0 mi Calm Calm - N/A   Overcast
3:01 PM 26.6 °F - 19.4 °F 74% 29.86 in 10.0 mi Calm Calm - N/A   Overcast
3:53 PM 26.1 °F - 19.0 °F 75% 29.87 in 10.0 mi Calm Calm - N/A   Overcast
4:53 PM 25.0 °F - 19.9 °F 81% 29.86 in 10.0 mi Calm Calm - N/A   Overcast
5:53 PM 24.1 °F 19.7 °F 19.0 °F 81% 29.86 in 10.0 mi SE 3.5 mph - N/A   Overcast
6:53 PM 23.0 °F - 19.0 °F 85% 29.88 in 10.0 mi Calm Calm - N/A   Overcast
7:42 PM 21.2 °F - 17.6 °F 86% 29.87 in 10.0 mi Calm Calm - N/A   Overcast
7:53 PM 21.0 °F - 18.0 °F 88% 29.88 in 10.0 mi Calm Calm - N/A   Mostly Cloudy
8:53 PM 19.9 °F 14.9 °F 17.1 °F 89% 29.87 in 10.0 mi Variable 3.5 mph - N/A   Clear
9:53 PM 18.0 °F 12.7 °F 14.0 °F 84% 29.89 in 9.0 mi ENE 3.5 mph - N/A   Partly Cloudy
10:53 PM 16.0 °F 8.8 °F 14.0 °F 92% 29.91 in 10.0 mi East 4.6 mph - N/A   Partly Cloudy